Flag for Tajikistan Weather past 2 weeks in Dushanbe, Tajikistan

Now
97 °F

Passing clouds.


Feels Like: 93 °F
Forecast: 77 / 100 °F
Wind: 6 mph from West

Location: Dushanbe Airport

Current Time: Jul 23, 2014 at 7:28:29 PM

Latest Report: Jul 23, 2014 at 6:30 PM


Visibility: N/A

Pressure: 29.59 "Hg

Humidity: 18%

Dew point: 46 °F

Location of DushanbeLocation

Historic Weather in Dushanbe — Graph

°F

Dushanbe temperature yesterday

Maximum temperature yesterday: 104 °F (at 4:30 PM)
Minimum temperature yesterday: 70 °F (at 4:00 AM)
Average temperature yesterday: 88 °F

Past Weeks' High & Low Weather Summary

 TemperatureHumidityPressure
High104 °F (Jul 22, 4:30 PM)64% (Jul 16, 6:00 AM)29.80 "Hg (Jul 16, 6:00 AM)
Low64 °F (Jul 18, 4:30 AM)8% (Jul 11, 4:30 PM)29.56 "Hg (Jul 22, 4:00 PM)
Average83 °F29%29.71 "Hg
* Reported Jul 8 6:00 PM — Jul 23 6:00 PM, Dushanbe, Weather by CustomWeather, © 2014

Note: Actual official high and low records may vary slightly from our data, if they occured in-between our weather recording intervals... More about our weather records

Advertising

Dushanbe weather history for July 12, 2014

 ConditionsComfort  
Time TempWeatherWind HumidityBarometerVisibility
12:00 AM
Jul 12
77 °FClear.1 mph36%29.74 "HgN/A
12:30 AM79 °FClear.1 mph37%29.74 "HgN/A
1:00 AM77 °FClear.1 mph39%29.71 "HgN/A
1:30 AM77 °FClear.1 mph36%29.71 "HgN/A
2:00 AM73 °FClear.1 mph41%29.71 "HgN/A
2:30 AM73 °FClear.1 mph44%29.71 "HgN/A
3:00 AM73 °FClear.1 mph44%29.71 "HgN/A
3:30 AM73 °FClear.No wind41%29.71 "HgN/A
4:00 AM75 °FClear.3 mph36%29.74 "HgN/A
4:30 AM75 °FClear.3 mph36%29.74 "HgN/A
5:00 AM73 °FPassing clouds.3 mph38%29.74 "HgN/A
5:30 AM75 °FPassing clouds.3 mph36%29.74 "HgN/A
6:00 AM75 °FPassing clouds.6 mph39%29.74 "HgN/A
6:30 AM77 °FPassing clouds.3 mph36%29.74 "HgN/A
7:00 AM79 °FPassing clouds.3 mph37%29.74 "HgN/A
7:30 AM82 °FScattered clouds.3 mph30%29.74 "HgN/A
8:30 AM86 °FScattered clouds.8 mph29%29.74 "HgN/A
9:00 AM88 °FScattered clouds.6 mph29%29.74 "HgN/A
9:30 AM91 °FPassing clouds.8 mph24%29.74 "HgN/A
10:00 AM93 °FPassing clouds.6 mph21%29.74 "HgN/A
10:30 AM95 °FPassing clouds.6 mph19%29.74 "HgN/A
11:00 AM97 °FPassing clouds.3 mph14%29.74 "HgN/A
11:30 AM97 °FPassing clouds.3 mph17%29.74 "HgN/A
12:00 PM99 °FPassing clouds.1 mph17%29.74 "HgN/A
12:30 PM97 °FPassing clouds.1 mph17%29.71 "HgN/A
1:00 PM99 °FPassing clouds.1 mph16%29.71 "HgN/A
1:30 PM99 °FPassing clouds.6 mph16%29.71 "HgN/A
2:00 PM99 °FPassing clouds.3 mph15%29.68 "HgN/A
2:30 PM100 °FPassing clouds.6 mph16%29.68 "HgN/A
3:00 PM99 °FPassing clouds.6 mph13%29.68 "HgN/A
3:30 PM100 °FScattered clouds.1 mph10%29.68 "HgN/A
4:00 PM100 °FScattered clouds.3 mph11%29.65 "HgN/A
4:30 PM100 °FScattered clouds.3 mph13%29.65 "HgN/A
5:00 PM99 °FScattered clouds.6 mph13%29.65 "HgN/A
5:30 PM99 °FPassing clouds.3 mph12%29.65 "HgN/A
6:00 PM97 °FScattered clouds.3 mph16%29.65 "HgN/A
6:30 PM97 °FScattered clouds.3 mph17%29.65 "HgN/A
7:00 PM95 °FScattered clouds.1 mph18%29.65 "HgN/A
7:30 PM91 °FScattered clouds.1 mph24%29.65 "Hg6 mi
8:00 PM88 °FPassing clouds.3 mph27%29.68 "Hg6 mi
8:30 PM86 °FPassing clouds.1 mph29%29.68 "HgN/A
9:00 PM86 °FPassing clouds.1 mph29%29.68 "HgN/A
9:30 PM86 °FPassing clouds.3 mph25%29.68 "HgN/A
10:00 PM81 °FPassing clouds.3 mph34%29.68 "HgN/A
10:30 PM81 °FPassing clouds.3 mph32%29.71 "HgN/A
11:00 PM79 °FPassing clouds.3 mph37%29.71 "HgN/A
11:30 PM79 °FPassing clouds.6 mph34%29.71 "HgN/A
Weather by CustomWeather, © 2014

See weather overviewHow to use our weather pages